Regional Weather Roundup
Issued by NWS

Home | Current Version | Previous Version | Graphics & Text | Print | Product List | Glossary Off
Versions: 1 2 3 4 5 6 7 8 9 10 11 12 13 14 15 16 17 18 19 20 21 22 23 24 25 26 27 28 29 30 31 32 33 34 35 36 37 38 39 40 41 42 43 44 45 46 47 48 49 50

000
ASUS43 KTOP 240059
RWRKS

WEATHER ROUNDUP FOR KANSAS
NATIONAL WEATHER SERVICE GOODLAND KS
800 PM CDT SAT SEP 23 2017

NOTE:  "FAIR" INDICATES FEW OR NO CLOUDS BELOW 12,000 FEET WITH NO
SIGNIFICANT WEATHER AND/OR OBSTRUCTIONS TO VISIBILITY.

KSZ001>006-013>018-027>032-041>047-240200-
NORTHWEST KANSAS

CITY           SKY/WX    TMP DP  RH WIND       PRES   REMARKS
GOODLAND       RAIN      57  57 100 N3        29.90R FOG
HAYS           PTCLDY    82  59  45 S16       29.85R
HILL CITY      CLOUDY    71  61  70 N9        29.84S
RUSSELL        PTCLDY    82  58  43 SE16G24   29.85R
$$

KSZ061>065-074>080-084>089-240200-
SOUTHWEST KANSAS

CITY           SKY/WX    TMP DP  RH WIND       PRES   REMARKS
DODGE CITY     CLEAR     80  57  45 SE21G30   29.87S
ELKHART          N/A     62  63 100 W8          N/A
GARDEN CITY    PTCLDY    78  60  53 S14       29.85R
GREAT BEND     PTCLDY    82  59  45 SE18      29.87R
LIBERAL        PTCLDY    77  62  59 SE20      29.86
$$

KSZ066>073-081>083-090>101-240200-
SOUTHEAST KANSAS

CITY           SKY/WX    TMP DP  RH WIND       PRES   REMARKS
CHANUTE        CLEAR     79  66  64 E5        29.94S
COFFEYVILLE    CLEAR     79  68  69 E3        29.92S
HUTCHINSON     PTCLDY    81  63  54 SE9       29.89R
MEDICINE LODGE   N/A     82  60  47 S10G17    29.88R
NEWTON         CLEAR     78  62  57 SE9       29.93R
PARSONS        CLEAR     75  66  73 CALM      29.94S
WICHITA INTL   PTCLDY    82  63  52 SE14      29.90R
WICHITA JABRA  CLEAR     80  63  55 SE8       29.91R
WINFIELD       CLEAR     80  64  58 SE6       29.92S
$$

KSZ007>012-019>026-033>040-048>060-102>105-240200-
NORTHEAST KANSAS

CITY           SKY/WX    TMP DP  RH WIND       PRES   REMARKS
CONCORDIA      PTCLDY    81  61  50 SE15      29.88R
EMPORIA        CLEAR     78  61  55 SE9       29.93S
LAWRENCE       CLEAR     77  67  71 E6        29.94S
MANHATTAN      CLEAR     83  62  49 SE8       29.89S
OLATHE IND     CLEAR     80  67  64 SE6       29.96S
OLATHE EXE     CLEAR     79  70  74 E5        29.96S
SALINA         CLEAR     85  60  42 SE12      29.88R
TOPEKA BILLARD CLEAR     78  67  68 E6        29.92F
TOPEKA FORBES  CLEAR     78  66  66 SE7       29.94S
$$



USA.gov is the U.S. government's official web portal to all federal, state and local government web resources and services.